sat.trackr.live / text

‹ back to catalog

STARLINK-36807

NORAD 67810 · 2026-032P

PAYLOAD ACTIVE UNKNOWN

§ Identity

Operator
Country
US
Launch date
2026-02-15
Launch site
AFWTR
Launch vehicle
Mass (kg)
RCS (m²)

Purposes: comms

External: N2YO · Heavens-Above · Gunter

§ Orbital elements

Epoch: 2026-09-19T18:22:40.402560Z

Period
93.91 min
Inclination
97.2836°
Eccentricity
0.0001839
Mean motion
15.33448684 rev/d
Perigee alt
464.3 km
Apogee alt
466.8 km
Semi-major
6,843.7 km
B*
4.1630e-4
RAAN
89.1985°
Arg perigee
89.7107°
Mean anomaly
270.4347°
Rev number
3,470

§ Raw data

STARLINK-368071 67810U 26032P   26262.76574540  .00013390  00000+0  41630-3 0  99932 67810  97.2836  89.1985 0001839  89.7107 270.4347 15.33448684 34709

JSON: /api/v1/satellites/67810 · /tle

For live sub-satellite position, see the globe view (requires WebGL).

§ Visibility from observer

Set your observer location to see the next 7 days of passes ≥ 10°. The values pass through the URL so the page stays shareable.

No JS? Fill the form by hand. The geolocation button needs JavaScript.